Location: Mentone
(34.5413°N, 85.5351°W)
Time: 21:11:39
(UTC-05:00)

ATLAS 5 CENTAUR R/B - Visible Passes

Search period start: 22 August 2017 00:00
Search period end: 01 September 2017 00:00
Orbit: 627 x 1033 km, 63.4° (Epoch: 25 July)

Date Brightness Start Highest point End Pass type
(mag) Time Alt. Az. Time Alt. Az. Time Alt. Az.
22 Aug 2.4 05:32:23 10° SSW 05:36:48 55° ESE 05:41:32 10° NE visible
23 Aug 2.5 05:13:28 10° S 05:17:50 50° ESE 05:22:31 10° NE visible
24 Aug 2.6 04:54:34 10° S 04:58:53 46° ESE 05:03:30 10° NE visible
25 Aug 2.7 04:36:40 16° S 04:39:56 42° ESE 04:44:29 10° NE visible
26 Aug 2.8 04:18:53 24° SSE 04:20:59 39° ESE 04:25:27 10° NE visible
27 Aug 2.8 04:01:02 32° SE 04:02:02 35° ESE 04:06:25 10° NE visible
27 Aug 3.2 05:43:06 10° W 05:46:46 23° NW 05:50:41 10° N visible
28 Aug 3.0 03:43:06 33° ESE 03:43:06 33° ESE 03:47:22 10° NE visible
28 Aug 3.1 05:24:40 13° W 05:27:45 24° NW 05:31:48 10° N visible
29 Aug 3.4 03:25:06 28° E 03:25:06 28° E 03:28:19 10° NE visible
29 Aug 3.0 05:06:40 19° W 05:08:45 26° NW 05:12:54 10° N visible
30 Aug 3.9 03:07:02 21° ENE 03:07:02 21° ENE 03:09:15 10° NE visible
30 Aug 2.8 04:48:36 25° WNW 04:49:44 28° NW 04:53:59 10° N visible
31 Aug 4.4 02:48:55 16° ENE 02:48:55 16° ENE 02:50:10 10° ENE visible
31 Aug 2.8 04:30:29 29° NW 04:30:44 29° NW 04:35:04 10° N visible
